Miscellaneous Local Product
Issued by NWS Hastings, NE

Home | Current Version | Previous Version | Text Only | Print | Product List | Glossary On
Versions: 1 2 3 4 5 6 7 8 9 10 11 12 13 14 15 16 17 18 19 20 21 22 23 24 25 26 27 28 29 30 31 32 33 34 35 36 37 38 39 40 41 42 43 44 45 46 47 48 49 50
000
AXUS43 KGID 230302
MISGRI

GID CWA HOURLY WEATHER ROUNDUP
NATIONAL WEATHER SERVICE HASTINGS NE
1000 PM CDT WED OCT 22 2014

NOTE: "FAIR" INDICATES FEW OR NO CLOUDS BELOW 12,000 FEET WITH NO
SIGNIFICANT WEATHER AND/OR OBSTRUCTIONS TO VISIBILITY.

...SOUTH CENTRAL NEBRASKA...

CITY           SKY/WX    TMP DP  RH WIND       PRES   REMARKS
GRAND ISLAND   FOG       56  55  97 CALM      30.05R VSB 1/4
HASTINGS       MOCLDY    59  56  89 CALM      30.04R FOG
KEARNEY        CLOUDY    52  48  87 CALM      30.06R VSB<1/4
ORD            FOG       46  45  96 CALM      30.05R VSB 1/4
YORK           CLOUDY    61  59  94 S10       30.03S
AURORA         CLOUDY    61  60  97 S5        30.03S
LEXINGTON      PTCLDY    51  50  95 CALM      30.06R FOG
HOLDREGE       FOG       47  46  95 CALM      30.05R VSB 1/4
HEBRON         CLOUDY    62  58  86 S9        30.05S

...NEBRASKA PANHANDLE...

CITY           SKY/WX    TMP DP  RH WIND       PRES   REMARKS
CHADRON        CLEAR     39  32  76 W7        30.05R WCI  34
ALLIANCE       CLEAR     42  31  64 CALM      30.09R
SCOTTSBLUFF    CLEAR     44  30  57 SE7       30.09R
SIDNEY         PTCLDY    49  37  63 S7        30.12R

...WESTERN AND NORTH CENTRAL NEBRASKA...

CITY           SKY/WX    TMP DP  RH WIND       PRES   REMARKS
VALENTINE      CLEAR     44  38  79 S3        30.05R
AINSWORTH      PTCLDY    43  41  91 S6        30.05S
ONEILL         FOG       48  48 100 SW3       30.05S VSB 1/2
BROKEN BOW     MOCLDY    50  48  93 NW3       30.06R
IMPERIAL       CLEAR     51  35  54 NW3       30.09R
NORTH PLATTE   PTCLDY    48  46  93 NE3       30.08R
MCCOOK         CLEAR     53  48  83 CALM      30.07R

...EASTERN NEBRASKA...

CITY           SKY/WX    TMP DP  RH WIND       PRES   REMARKS
NORFOLK        CLOUDY    59  58  96 NW5       30.03S
SO SIOUX CITY  CLOUDY    60  59  96 E3        30.04R
TEKAMAH        CLOUDY    62  59  90 S5        30.03S
COLUMBUS       CLOUDY    63  57  82 SW6       30.04S
ALBION         CLOUDY    56  55  94 N5        30.05R
OMAHA EPPLEY   RAIN      63  61  93 SE12      30.05F FOG
OFFUTT AFB     HVY RAIN  63  63 100 E3        30.06F FOG
MILLARD        HVY RAIN  63  61  92 S9        30.05F
LINCOLN        LGT RAIN  62  59  90 S14       30.05F
NEBRASKA CITY  RAIN      62  61  96 W6        30.09R
BEATRICE       RAIN      61  59  93 W5        30.07R
FALLS CITY     LGT RAIN  64  56  75 SE9       30.06R

...NORTHERN KANSAS...

CITY           SKY/WX    TMP DP  RH WIND       PRES   REMARKS
GOODLAND       PTCLDY    51  45  79 E6        30.10S
HILL CITY      CLEAR     60  54  80 S3        30.05R
NORTON         CLEAR     54  50  87 CALM      30.05
PHILLIPSBURG   MOCLDY    61  61 100 W5        30.05R FOG
SMITH CENTER   CLEAR     57  55  94 S7        30.04R
BELOIT         CLOUDY    64  57  77 S7        30.04R
HAYS           MOCLDY    61  54  77 S13       30.05S
RUSSELL        CLOUDY    62  57  83 S15       30.03F
CONCORDIA      CLOUDY    62  60  93 S12       30.05R
SALINA         CLOUDY    63  58  83 S9        30.05F
TOPEKA         CLOUDY    68  58  70 SE10      30.08S



USA.gov is the U.S. government's official web portal to all federal, state and local government web resources and services.